Change the Weather History Date:

Sunday, February 24, 2013

  Actual Average Record
Temperature  
Mean Temperature 40 °F -  
Max Temperature 51 °F 54 °F 75 °F (1972)
Min Temperature 28 °F 27 °F 1 °F (1965)
Degree Days  
Heating Degree Days 26    
Moisture  
Dew Point 28 °F    
Average Humidity 79    
Maximum Humidity 93    
Minimum Humidity 38    
Precipitation  
Precipitation 0.00 in - - ()
Sea Level Pressure  
Sea Level Pressure 29.71 in    
Wind  
Wind Speed 17 mph (NNE)    
Max Wind Speed 26 mph    
Max Gust Speed 36 mph    
Visibility 8 miles    
Events Snow , Thunderstorm    
Averages and records for this station are not official NWS values.
T = Trace of Precipitation, MM = Missing Value Source: NWS Daily Summary

Daily Weather History Graph

Daily Weather History Graph

Search for Another Location

Airport or City:

Trip Planner

Search our weather history database for the weather conditions in past years. The results will help you decide how hot, cold, wet, or windy it might be!

Date:

Astronomy

Feb. 24, 2013 Rise Set
Actual Time 7:19 AM CST 6:34 PM CST
Civil Twilight 6:54 AM CST 7:00 PM CST
Nautical Twilight 6:24 AM CST 7:30 PM CST
Astronomical Twilight 5:55 AM CST 7:59 PM CST
Moon 5:47 PM CST (2/24) 6:17 AM CST (2/24)
Length of Visible Light 12h 06m
Length of Day
11h 15m
Waxing Gibbous, 99% of the Moon is Illuminated
Feb 24
Waxing Gibbous
Feb 25
Full
Mar 4
Last Quarter
Mar 11
New
Mar 19
First Quarter

Hourly Weather History & Observations

Time (CST) Temp. Windchill Dew Point Humidity Pressure Visibility Wind Dir Wind Speed Gust Speed Precip Events Conditions
12:15 AM 33.8 °F 22.2 °F 28.4 °F 81% 29.72 in 10.0 mi South 20.7 mph - N/A   Clear
12:35 AM 33.8 °F 21.9 °F 28.4 °F 81% 29.72 in 10.0 mi South 21.9 mph 26.5 mph N/A   Clear
12:55 AM 33.8 °F 22.5 °F 28.4 °F 81% 29.72 in 10.0 mi South 19.6 mph 27.6 mph N/A   Clear
1:15 AM 32.0 °F 20.5 °F 28.4 °F 87% 29.72 in 10.0 mi South 18.4 mph - N/A   Clear
1:35 AM 33.8 °F 22.8 °F 28.4 °F 81% 29.72 in 10.0 mi South 18.4 mph 23.0 mph N/A   Clear
1:55 AM 33.8 °F 23.2 °F 28.4 °F 81% 29.72 in 10.0 mi SSE 17.3 mph - N/A   Clear
2:15 AM 32.0 °F 21.2 °F 28.4 °F 87% 29.70 in 10.0 mi SSE 16.1 mph - N/A   Clear
2:35 AM 32.0 °F 20.5 °F 28.4 °F 87% 29.70 in 10.0 mi South 18.4 mph - N/A   Clear
2:55 AM 32.0 °F 20.5 °F 26.6 °F 80% 29.69 in 10.0 mi South 18.4 mph - N/A   Clear
3:15 AM 32.0 °F 20.1 °F 26.6 °F 80% 29.68 in 10.0 mi South 19.6 mph 25.3 mph N/A   Clear
3:35 AM 32.0 °F 20.5 °F 26.6 °F 80% 29.68 in 10.0 mi South 18.4 mph - N/A   Clear
3:55 AM 32.0 °F 20.8 °F 26.6 °F 80% 29.66 in 10.0 mi SSE 17.3 mph - N/A   Clear
4:15 AM 32.0 °F 20.5 °F 26.6 °F 80% 29.65 in 10.0 mi SSE 18.4 mph - N/A   Clear
4:35 AM 32.0 °F 20.8 °F 26.6 °F 80% 29.65 in 10.0 mi South 17.3 mph 21.9 mph N/A   Clear
4:55 AM 30.2 °F 20.2 °F 26.6 °F 86% 29.66 in 10.0 mi South 12.7 mph - N/A   Clear
5:15 AM 30.2 °F 21.3 °F 26.6 °F 86% 29.67 in 10.0 mi SSE 10.4 mph - N/A   Clear
5:35 AM 30.2 °F 19.3 °F 26.6 °F 86% 29.66 in 10.0 mi South 15.0 mph - N/A   Clear
5:55 AM 30.2 °F 21.9 °F 26.6 °F 86% 29.67 in 10.0 mi South 9.2 mph - N/A   Clear
6:15 AM 30.2 °F 20.8 °F 26.6 °F 86% 29.67 in 10.0 mi South 11.5 mph - N/A   Clear
6:35 AM 30.2 °F 19.8 °F 26.6 °F 86% 29.67 in 10.0 mi South 13.8 mph - N/A   Clear
6:55 AM 28.4 °F 18.0 °F 26.6 °F 93% 29.67 in 10.0 mi South 12.7 mph - N/A   Clear
7:15 AM 28.4 °F 17.5 °F 26.6 °F 93% 29.67 in 10.0 mi South 13.8 mph - N/A   Clear
7:35 AM 30.2 °F 19.8 °F 26.6 °F 86% 29.68 in 10.0 mi South 13.8 mph 19.6 mph N/A   Clear
7:55 AM 30.2 °F 19.3 °F 26.6 °F 86% 29.69 in 10.0 mi South 15.0 mph 23.0 mph N/A   Clear
8:15 AM 32.0 °F 22.1 °F 26.6 °F 80% 29.69 in 10.0 mi South 13.8 mph 18.4 mph N/A   Clear
8:35 AM 32.0 °F 24.2 °F 28.4 °F 87% 29.69 in 10.0 mi South 9.2 mph - N/A   Clear
8:55 AM 33.8 °F 25.8 °F 28.4 °F 81% 29.70 in 10.0 mi South 10.4 mph - N/A   Clear
9:15 AM 37.4 °F 30.3 °F 28.4 °F 70% 29.70 in 10.0 mi South 10.4 mph - N/A   Clear
9:35 AM 41.0 °F 34.7 °F 28.4 °F 61% 29.69 in 10.0 mi SSW 10.4 mph - N/A   Clear
9:55 AM 42.8 °F 37.5 °F 28.4 °F 57% 29.70 in 10.0 mi SW 9.2 mph - N/A   Clear
10:15 AM 46.4 °F 41.5 °F 30.2 °F 53% 29.69 in 10.0 mi WSW 10.4 mph - N/A   Clear
10:35 AM 48.2 °F - 30.2 °F 50% 29.69 in 10.0 mi West 10.4 mph - N/A   Clear
10:55 AM 50.0 °F - 28.4 °F 43% 29.69 in 10.0 mi West 10.4 mph - N/A   Clear
11:15 AM 51.8 °F - 28.4 °F 41% 29.69 in 10.0 mi West 12.7 mph - N/A   Clear
11:35 AM 51.8 °F - 28.4 °F 41% 29.69 in 10.0 mi WNW 13.8 mph 17.3 mph N/A   Clear
11:55 AM 51.8 °F - 26.6 °F 38% 29.70 in 10.0 mi WNW 8.1 mph - N/A   Clear
12:15 PM 51.8 °F - 28.4 °F 41% 29.70 in 10.0 mi NNW 11.5 mph - N/A   Clear
12:35 PM 50.0 °F - 28.4 °F 43% 29.69 in 10.0 mi NNW 12.7 mph - N/A   Clear
12:55 PM 48.2 °F - 32.0 °F 54% 29.68 in 10.0 mi North 11.5 mph 17.3 mph N/A   Clear
1:15 PM 44.6 °F 38.8 °F 32.0 °F 61% 29.68 in 10.0 mi North 11.5 mph - N/A   Clear
1:35 PM 44.6 °F 38.8 °F 32.0 °F 61% 29.67 in 10.0 mi North 11.5 mph - N/A   Clear
1:55 PM 44.6 °F 38.4 °F 32.0 °F 61% 29.67 in 10.0 mi North 12.7 mph - N/A   Clear
2:15 PM 44.6 °F 37.8 °F 33.8 °F 66% 29.67 in 10.0 mi North 15.0 mph - N/A   Clear
2:35 PM 42.8 °F 35.4 °F 32.0 °F 66% 29.66 in 10.0 mi North 15.0 mph 23.0 mph N/A   Clear
2:55 PM 41.0 °F 32.8 °F 32.0 °F 70% 29.67 in 10.0 mi North 16.1 mph 21.9 mph N/A   Clear
3:15 PM 41.0 °F 32.8 °F 32.0 °F 70% 29.68 in 10.0 mi North 16.1 mph 20.7 mph N/A   Clear
3:35 PM 39.2 °F 30.2 °F 32.0 °F 75% 29.68 in 7.0 mi North 17.3 mph - N/A   Clear
3:55 PM 37.4 °F 27.5 °F 32.0 °F 81% 29.69 in 7.0 mi North 18.4 mph 25.3 mph N/A   Scattered Clouds
4:15 PM 33.8 °F 22.2 °F 30.2 °F 87% 29.69 in 7.0 mi North 20.7 mph 27.6 mph N/A   Mostly Cloudy
4:35 PM 33.8 °F 21.9 °F 30.2 °F 87% 29.69 in 7.0 mi North 21.9 mph 27.6 mph N/A   Overcast
4:55 PM 32.0 °F 19.2 °F 30.2 °F 93% 29.69 in 5.0 mi North 23.0 mph 26.5 mph N/A   Overcast
5:15 PM 32.0 °F 18.9 °F 30.2 °F 93% 29.69 in 5.0 mi North 24.2 mph 29.9 mph N/A   Overcast
5:35 PM 32.0 °F 20.8 °F 28.4 °F 87% 29.74 in 5.0 mi North 17.3 mph 26.5 mph N/A   Overcast
5:55 PM 32.0 °F 20.1 °F 28.4 °F 87% 29.76 in 5.0 mi North 19.6 mph 26.5 mph N/A   Overcast
6:15 PM 32.0 °F 19.8 °F 28.4 °F 87% 29.76 in 4.0 mi North 20.7 mph 26.5 mph N/A   Overcast
6:35 PM 32.0 °F 19.8 °F 28.4 °F 87% 29.78 in 4.0 mi North 20.7 mph 28.8 mph N/A   Overcast
6:55 PM 30.2 °F 17.4 °F 28.4 °F 93% 29.78 in 5.0 mi North 20.7 mph 28.8 mph N/A   Overcast
7:15 PM 30.2 °F 17.8 °F 28.4 °F 93% 29.79 in 5.0 mi North 19.6 mph 26.5 mph N/A   Overcast
7:35 PM 30.2 °F 18.1 °F 28.4 °F 93% 29.80 in 7.0 mi North 18.4 mph 24.2 mph N/A   Overcast
7:55 PM 30.2 °F 17.8 °F 28.4 °F 93% 29.78 in 1.8 mi North 19.6 mph 31.1 mph N/A Snow Light Snow
8:15 PM 30.2 °F 17.1 °F 28.4 °F 93% 29.78 in 2.5 mi North 21.9 mph 29.9 mph N/A Snow , Thunderstorm Light Thunderstorms and Snow
8:35 PM 30.2 °F 15.9 °F 28.4 °F 93% 29.75 in 4.0 mi NNE 26.5 mph 35.7 mph N/A Snow Light Snow
8:55 PM 30.2 °F 16.2 °F 28.4 °F 93% 29.76 in 5.0 mi NNE 25.3 mph 32.2 mph N/A   Overcast
9:15 PM 30.2 °F 16.5 °F 28.4 °F 93% 29.75 in 5.0 mi NNE 24.2 mph 29.9 mph N/A   Overcast
9:35 PM 30.2 °F 17.1 °F 26.6 °F 86% 29.80 in 5.0 mi NNE 21.9 mph 25.3 mph N/A   Overcast
9:55 PM 28.4 °F 13.8 °F 26.6 °F 93% 29.77 in 7.0 mi North 25.3 mph 33.4 mph N/A   Overcast
10:15 PM 28.4 °F 14.1 °F 26.6 °F 93% 29.78 in 5.0 mi NNE 24.2 mph 31.1 mph N/A   Overcast
10:35 PM 28.4 °F 15.4 °F 26.6 °F 93% 29.84 in 5.0 mi NNE 19.6 mph 26.5 mph N/A   Overcast
10:55 PM 28.4 °F 13.8 °F 26.6 °F 93% 29.76 in 5.0 mi NNE 25.3 mph 29.9 mph N/A   Overcast
11:15 PM 28.4 °F 14.4 °F 26.6 °F 93% 29.77 in 2.0 mi North 23.0 mph 29.9 mph N/A Snow Light Snow
11:35 PM 28.4 °F 15.8 °F 26.6 °F 93% 29.78 in 1.2 mi NNE 18.4 mph 29.9 mph N/A Snow , Thunderstorm Light Thunderstorms and Snow
11:55 PM 28.4 °F 14.7 °F 26.6 °F 93% 29.77 in 1.8 mi North 21.9 mph 29.9 mph N/A Snow Light Snow